• In Russia
  • List of Countries
  • For 7 days
  • Water Temperature
  • Satellite Maps
  • Weather Map
  • Weather Widgets
  • user-avatar
    Login

    Hourly Weather Dobrich

    Today, 23 January, Wednesday

    Time Temperature Precipitation Wind Pressure Humidity
    00:00 +2°C° 0 mm 6 mps 735 mmHg 94%
    01:00 +2°C° 0 mm 6 mps 734 mmHg 94%
    02:00 +2°C° 0 mm 5 mps 734 mmHg 95%
    03:00 +2°C° 0.1 mm 5 mps 733 mmHg 95%
    04:00 +3°C° 0.1 mm 5 mps 732 mmHg 96%
    05:00 +3°C° 0.1 mm 5 mps 732 mmHg 96%
    06:00 +3°C° 0 mm 5 mps 731 mmHg 96%
    07:00 +3°C° 0 mm 5 mps 731 mmHg 95%
    08:00 +4°C° 0 mm 4 mps 731 mmHg 94%
    09:00 +5°C° 0 mm 5 mps 731 mmHg 91%
    10:00 +7°C° 0 mm 6 mps 731 mmHg 87%
    11:00 +8°C° 0 mm 6 mps 731 mmHg 84%
    12:00 +9°C° 0 mm 6 mps 730 mmHg 81%
    13:00 +9°C° 0 mm 5 mps 730 mmHg 78%
    14:00 +11°C° 0 mm 4 mps 730 mmHg 74%
    15:00 +10°C° 0 mm 4 mps 730 mmHg 78%
    16:00 +9°C° 0 mm 3 mps 730 mmHg 82%
    17:00 +8°C° 0 mm 2 mps 730 mmHg 87%
    18:00 +8°C° 0 mm 2 mps 729 mmHg 88%
    19:00 +8°C° 0 mm 3 mps 729 mmHg 90%
    20:00 +7°C° 0 mm 3 mps 729 mmHg 92%
    21:00 +6°C° 0 mm 4 mps 729 mmHg 92%
    22:00 +6°C° 0 mm 4 mps 729 mmHg 93%
    23:00 +6°C° 0 mm 5 mps 729 mmHg 93%

    Tomorrow, 24 January, Thursday

    Time Temperature Precipitation Wind Pressure Humidity
    00:00 +6°C° 0.1 mm 5 mps 729 mmHg 93%
    01:00 +6°C° 0.1 mm 5 mps 729 mmHg 93%
    02:00 +5°C° 0.1 mm 6 mps 729 mmHg 92%
    03:00 +5°C° 0.3 mm 6 mps 728 mmHg 93%
    04:00 +7°C° 0.3 mm 6 mps 728 mmHg 94%
    05:00 +7°C° 0.3 mm 6 mps 728 mmHg 96%
    06:00 +7°C° 0 mm 6 mps 728 mmHg 94%
    07:00 +7°C° 0 mm 6 mps 727 mmHg 93%
    08:00 +5°C° 0 mm 6 mps 727 mmHg 92%
    09:00 +7°C° 0 mm 5 mps 727 mmHg 90%
    10:00 +7°C° 0 mm 5 mps 727 mmHg 88%
    11:00 +7°C° 0 mm 5 mps 727 mmHg 86%
    12:00 +7°C° 0.5 mm 4 mps 727 mmHg 88%
    13:00 +7°C° 0.5 mm 4 mps 726 mmHg 90%
    14:00 +8°C° 0.5 mm 3 mps 726 mmHg 91%
    15:00 +8°C° 0.1 mm 3 mps 726 mmHg 91%
    16:00 +7°C° 0.1 mm 4 mps 726 mmHg 91%
    17:00 +7°C° 0.1 mm 4 mps 726 mmHg 91%
    18:00 +8°C° 0 mm 3 mps 727 mmHg 91%
    19:00 +8°C° 0 mm 3 mps 727 mmHg 91%
    20:00 +7°C° 0 mm 3 mps 727 mmHg 92%
    21:00 +7°C° 0 mm 3 mps 727 mmHg 92%
    22:00 +7°C° 0 mm 2 mps 728 mmHg 93%
    23:00 +7°C° 0 mm 2 mps 728 mmHg 94%

    Day after tomorrow, 25 January, Friday

    Time Temperature Precipitation Wind Pressure Humidity
    00:00 +6°C° 0.1 mm 2 mps 728 mmHg 94%
    01:00 +6°C° 0.1 mm 2 mps 729 mmHg 94%
    02:00 +6°C° 0.1 mm 2 mps 729 mmHg 94%
    03:00 +6°C° 0 mm 2 mps 729 mmHg 94%
    04:00 +6°C° 0 mm 2 mps 729 mmHg 94%
    05:00 +5°C° 0 mm 2 mps 729 mmHg 94%
    06:00 +5°C° 0 mm 2 mps 730 mmHg 94%
    07:00 +5°C° 0 mm 2 mps 730 mmHg 93%
    08:00 +5°C° 0 mm 2 mps 730 mmHg 93%
    09:00 +7°C° 0 mm 3 mps 730 mmHg 88%
    10:00 +8°C° 0 mm 4 mps 731 mmHg 82%
    11:00 +9°C° 0 mm 5 mps 731 mmHg 76%
    12:00 +10°C° 0 mm 6 mps 731 mmHg 72%
    13:00 +10°C° 0 mm 6 mps 731 mmHg 68%
    14:00 +10°C° 0 mm 6 mps 730 mmHg 63%
    15:00 +9°C° 0 mm 6 mps 730 mmHg 68%
    16:00 +8°C° 0 mm 5 mps 730 mmHg 74%
    17:00 +7°C° 0 mm 5 mps 730 mmHg 79%
    18:00 +7°C° 0 mm 5 mps 730 mmHg 81%
    19:00 +7°C° 0 mm 5 mps 730 mmHg 83%
    20:00 +7°C° 0 mm 5 mps 730 mmHg 85%
    21:00 +6°C° 0 mm 5 mps 730 mmHg 85%
    22:00 +5°C° 0 mm 6 mps 729 mmHg 86%
    23:00 +5°C° 0 mm 6 mps 729 mmHg 86%

    26 January, Saturday

    Time Temperature Precipitation Wind Pressure Humidity
    00:00 +5°C° 0.3 mm 6 mps 729 mmHg 88%
    01:00 +6°C° 0.3 mm 5 mps 729 mmHg 90%
    02:00 +6°C° 0.3 mm 5 mps 728 mmHg 93%
    03:00 +6°C° 0.2 mm 5 mps 728 mmHg 94%
    04:00 +6°C° 0.2 mm 5 mps 728 mmHg 95%
    05:00 +6°C° 0.2 mm 4 mps 728 mmHg 96%
    06:00 +6°C° 0.2 mm 4 mps 728 mmHg 96%
    07:00 +6°C° 0.2 mm 4 mps 728 mmHg 96%
    08:00 +6°C° 0.2 mm 4 mps 728 mmHg 96%
    09:00 +6°C° 0 mm 5 mps 728 mmHg 93%
    10:00 +7°C° 0 mm 5 mps 729 mmHg 89%
    11:00 +8°C° 0 mm 5 mps 729 mmHg 86%
    12:00 +8°C° 0.1 mm 5 mps 729 mmHg 86%
    13:00 +8°C° 0.1 mm 5 mps 728 mmHg 86%
    14:00 +7°C° 0.1 mm 5 mps 728 mmHg 86%
    15:00 +7°C° 0.1 mm 5 mps 728 mmHg 87%
    16:00 +7°C° 0.1 mm 5 mps 728 mmHg 89%
    17:00 +6°C° 0.1 mm 5 mps 728 mmHg 90%
    18:00 +6°C° 0.3 mm 5 mps 729 mmHg 91%
    19:00 +5°C° 0.3 mm 5 mps 729 mmHg 92%
    20:00 +4°C° 0.3 mm 6 mps 729 mmHg 92%
    21:00 +5°C° 0.1 mm 5 mps 730 mmHg 92%
    22:00 +3°C° 0.1 mm 5 mps 730 mmHg 92%
    23:00 +3°C° 0.1 mm 5 mps 730 mmHg 91%

    27 January, Sunday

    Time Temperature Precipitation Wind Pressure Humidity
    00:00 +3°C° 0 mm 5 mps 730 mmHg 92%
    01:00 +2°C° 0 mm 5 mps 730 mmHg 92%
    02:00 +2°C° 0 mm 5 mps 730 mmHg 92%
    03:00 +2°C° 0 mm 5 mps 731 mmHg 92%
    04:00 +1°C° 0 mm 5 mps 731 mmHg 92%
    05:00 +1°C° 0 mm 4 mps 731 mmHg 91%
    06:00 +1°C° 0 mm 4 mps 731 mmHg 91%
    07:00 +1°C° 0 mm 4 mps 731 mmHg 91%
    08:00 0°C° 0 mm 4 mps 732 mmHg 90%
    09:00 +1°C° 0 mm 4 mps 732 mmHg 89%
    10:00 +2°C° 0 mm 3 mps 733 mmHg 87%
    11:00 +2°C° 0 mm 3 mps 733 mmHg 85%
    12:00 +3°C° 0 mm 3 mps 733 mmHg 82%
    13:00 +3°C° 0 mm 3 mps 733 mmHg 80%
    14:00 +4°C° 0 mm 4 mps 733 mmHg 77%
    15:00 +3°C° 0 mm 3 mps 733 mmHg 78%
    16:00 +4°C° 0 mm 2 mps 733 mmHg 79%
    17:00 +4°C° 0 mm 2 mps 733 mmHg 79%
    18:00 +3°C° 0 mm 2 mps 734 mmHg 82%
    19:00 +2°C° 0 mm 2 mps 734 mmHg 84%
    20:00 +2°C° 0 mm 2 mps 734 mmHg 86%
    21:00 +2°C° 0 mm 1 mps 734 mmHg 87%
    22:00 +2°C° 0 mm 1 mps 735 mmHg 87%
    23:00 +2°C° 0 mm 1 mps 735 mmHg 88%

    28 January, Monday

    Time Temperature Precipitation Wind Pressure Humidity
    00:00 +2°C° 0 mm 1 mps 735 mmHg 88%
    01:00 +2°C° 0 mm 1 mps 735 mmHg 88%
    02:00 +2°C° 0 mm 1 mps 735 mmHg 88%
    03:00 +2°C° 0 mm 1 mps 735 mmHg 89%
    04:00 +1°C° 0 mm 1 mps 735 mmHg 90%
    05:00 -1°C° 0 mm 2 mps 735 mmHg 91%
    06:00 +1°C° 0 mm 2 mps 735 mmHg 91%
    07:00 +1°C° 0 mm 2 mps 735 mmHg 92%
    08:00 +1°C° 0 mm 2 mps 736 mmHg 93%
    09:00 +1°C° 0 mm 3 mps 736 mmHg 89%
    10:00 +3°C° 0 mm 3 mps 736 mmHg 85%
    11:00 +4°C° 0 mm 4 mps 737 mmHg 81%
    12:00 +4°C° 0 mm 4 mps 736 mmHg 81%
    13:00 +4°C° 0 mm 4 mps 736 mmHg 82%
    14:00 +5°C° 0 mm 4 mps 736 mmHg 82%
    15:00 +5°C° 0 mm 4 mps 736 mmHg 85%
    16:00 +4°C° 0 mm 4 mps 736 mmHg 88%
    17:00 +4°C° 0 mm 4 mps 736 mmHg 91%
    18:00 +4°C° 0 mm 4 mps 736 mmHg 92%
    19:00 +4°C° 0 mm 4 mps 736 mmHg 93%
    20:00 +4°C° 0 mm 4 mps 736 mmHg 94%
    21:00 +3°C° 0 mm 5 mps 736 mmHg 94%
    22:00 +3°C° 0 mm 5 mps 737 mmHg 94%
    23:00 +5°C° 0 mm 5 mps 737 mmHg 93%
    Show more